Change the Weather History Date:

Saturday, November 17, 2012

  Actual Average Record
Temperature  
Mean Temperature 59 °F -  
Max Temperature 62 °F 63 °F 76 °F (1967)
Min Temperature 55 °F 42 °F 26 °F (1961)
Degree Days  
Heating Degree Days 6    
Cooling Degree Days 0    
Growing Degree Days 8 (Base 50)    
Moisture  
Dew Point 54 °F    
Average Humidity 88    
Maximum Humidity 94    
Minimum Humidity 70    
Precipitation  
Precipitation 0.50 in 0.07 in 0.92 in (1973)
Month to date precipitation 0.95 1.03  
Year to date precipitation 11.98 14.22  
Since 1 July precipitation 2.12 2.32  
Sea Level Pressure  
Sea Level Pressure 29.91 in    
Wind  
Wind Speed 7 mph (South)    
Max Wind Speed 18 mph    
Max Gust Speed 28 mph    
Visibility 5 miles    
Events Rain    
T = Trace of Precipitation, MM = Missing Value Source: NWS Daily Summary

Daily Weather History Graph

Daily Weather History Graph

Search for Another Location

Airport or City:

Trip Planner

Search our weather history database for the weather conditions in past years. The results will help you decide how hot, cold, wet, or windy it might be!

Date:

Astronomy

Nov. 17, 2012 Rise Set
Actual Time 6:50 AM PST 4:51 PM PST
Civil Twilight 6:22 AM PST 5:19 PM PST
Nautical Twilight 5:49 AM PST 5:51 PM PST
Astronomical Twilight 5:18 AM PST 6:23 PM PST
Moon 10:39 AM PST (11/17) 9:07 PM PST (11/17)
Length of Visible Light 10h 57m
Length of Day
10h 00m
Waxing Crescent, 21% of the Moon is Illuminated
Nov 17
Waxing Crescent
Nov 20
First Quarter
Nov 28
Full
Dec 6
Last Quarter
Dec 13
New

Hourly Weather History & Observations

Time (PST) Temp. Dew Point Humidity Pressure Visibility Wind Dir Wind Speed Gust Speed Precip Events Conditions
12:14 AM 55.4 °F 53.6 °F 94% 29.90 in 2.5 mi Calm Calm - 0.00 in Rain Light Rain
12:44 AM 55.4 °F 53.6 °F 94% 29.89 in 1.2 mi Calm Calm - 0.03 in Rain Rain
12:53 AM 55.0 °F 53.1 °F 93% 29.90 in 1.5 mi Calm Calm - 0.05 in Rain Light Rain
1:25 AM 55.4 °F 53.6 °F 94% 29.88 in 3.0 mi SE 6.9 mph - 0.08 in Rain Light Rain
1:53 AM 57.0 °F 54.0 °F 89% 29.88 in 7.0 mi SE 5.8 mph - 0.09 in Rain Light Rain
2:53 AM 57.0 °F 53.1 °F 87% 29.87 in 4.0 mi SE 12.7 mph 20.7 mph 0.10 in Rain Light Rain
3:53 AM 57.0 °F 53.1 °F 87% 29.85 in 10.0 mi SSE 11.5 mph 16.1 mph 0.01 in Rain Light Rain
4:53 AM 57.2 °F 53.6 °F 88% 29.84 in 10.0 mi SSE 6.9 mph - N/A   Overcast
5:53 AM 57.9 °F 52.0 °F 81% 29.84 in 10.0 mi SE 11.5 mph 24.2 mph N/A   Overcast
6:53 AM 59.0 °F 52.0 °F 78% 29.84 in 9.0 mi SE 15.0 mph 25.3 mph 0.00 in   Overcast
7:53 AM 57.9 °F 53.1 °F 84% 29.88 in 5.0 mi South 10.4 mph 25.3 mph 0.03 in Rain Light Rain
8:09 AM 57.2 °F 53.6 °F 88% 29.88 in 6.0 mi SSE 11.5 mph 20.7 mph 0.01 in Rain Light Rain
8:20 AM 57.2 °F 53.6 °F 88% 29.87 in 3.0 mi SSE 13.8 mph 21.9 mph 0.01 in Rain Light Rain
8:53 AM 57.0 °F 54.0 °F 89% 29.88 in 4.0 mi SSE 11.5 mph 19.6 mph 0.02 in Rain Light Rain
9:51 AM 57.2 °F 53.6 °F 88% 29.89 in 1.8 mi South 11.5 mph 19.6 mph 0.02 in Rain Rain
9:53 AM 57.9 °F 54.0 °F 87% 29.90 in 1.5 mi SSE 12.7 mph 19.6 mph 0.03 in Rain Heavy Rain
10:06 AM 57.2 °F 53.6 °F 88% 29.90 in 3.0 mi South 16.1 mph 24.2 mph 0.03 in Rain Light Rain
10:23 AM 57.2 °F 55.4 °F 94% 29.91 in 2.5 mi SSE 11.5 mph 21.9 mph 0.03 in Rain Light Rain
10:53 AM 57.9 °F 55.0 °F 90% 29.91 in 2.5 mi South 8.1 mph 16.1 mph 0.07 in Rain Light Rain
11:10 AM 57.2 °F 55.4 °F 94% 29.91 in 4.0 mi South 10.4 mph 20.7 mph 0.00 in Rain Light Rain
11:21 AM 57.2 °F 55.4 °F 94% 29.91 in 2.0 mi South 12.7 mph 24.2 mph 0.02 in Rain Light Rain
11:40 AM 57.2 °F 55.4 °F 94% 29.91 in 3.0 mi South 13.8 mph 19.6 mph 0.03 in Rain Light Rain
11:53 AM 57.9 °F 55.0 °F 90% 29.91 in 6.0 mi South 9.2 mph 16.1 mph 0.03 in Rain Light Rain
12:26 PM 57.2 °F 55.4 °F 94% 29.91 in 2.5 mi South 9.2 mph 19.6 mph 0.02 in Rain Light Rain
12:38 PM 57.2 °F 55.4 °F 94% 29.90 in 1.8 mi SSW 9.2 mph 17.3 mph 0.03 in Rain Light Rain
12:53 PM 57.9 °F 55.9 °F 93% 29.91 in 1.8 mi South 8.1 mph - 0.06 in Rain Light Rain
12:55 PM 57.2 °F 55.4 °F 94% 29.90 in 2.0 mi South 5.8 mph - 0.00 in Rain Light Rain
12:57 PM 57.2 °F 55.4 °F 94% 29.90 in 3.0 mi South 6.9 mph - 0.00 in Rain Light Rain
1:08 PM 59.0 °F 55.4 °F 88% 29.90 in 10.0 mi SSW 5.8 mph - 0.00 in   Overcast
1:16 PM 59.0 °F 57.2 °F 94% 29.90 in 10.0 mi Variable 4.6 mph - 0.00 in   Overcast
1:29 PM 60.8 °F 57.2 °F 88% 29.90 in 10.0 mi South 6.9 mph - 0.00 in   Overcast
1:38 PM 60.8 °F 57.2 °F 88% 29.89 in 10.0 mi South 6.9 mph - 0.00 in   Mostly Cloudy
1:53 PM 61.0 °F 57.0 °F 87% 29.89 in 10.0 mi SSW 6.9 mph - 0.00 in   Scattered Clouds
2:53 PM 62.1 °F 55.9 °F 80% 29.89 in 10.0 mi SSW 12.7 mph 20.7 mph N/A   Mostly Cloudy
3:53 PM 62.1 °F 52.0 °F 70% 29.90 in 10.0 mi SSW 11.5 mph 23.0 mph N/A   Clear
4:53 PM 59.0 °F 51.1 °F 75% 29.91 in 10.0 mi SSW 6.9 mph - N/A   Clear
5:53 PM 57.9 °F 50.0 °F 75% 29.92 in 10.0 mi SSE 5.8 mph - N/A   Clear
6:53 PM 57.9 °F 48.9 °F 72% 29.93 in 10.0 mi SE 6.9 mph - N/A   Mostly Cloudy
7:53 PM 57.0 °F 50.0 °F 77% 29.94 in 10.0 mi SSE 4.6 mph - N/A   Overcast
8:53 PM 55.9 °F 51.1 °F 84% 29.96 in 10.0 mi SSE 5.8 mph - 0.02 in Rain Light Rain
9:53 PM 55.9 °F 51.1 °F 84% 29.97 in 4.0 mi SSE 5.8 mph - 0.02 in Rain Rain
10:49 PM 55.4 °F 51.8 °F 88% 29.98 in 4.0 mi Variable 4.6 mph 19.6 mph 0.03 in Rain Light Rain
10:53 PM 55.0 °F 52.0 °F 89% 29.99 in 4.0 mi WSW 6.9 mph 19.6 mph 0.04 in Rain Light Rain
11:06 PM 55.4 °F 51.8 °F 88% 29.99 in 2.5 mi SW 6.9 mph - 0.03 in Rain Light Rain
11:17 PM 55.4 °F 53.6 °F 94% 29.99 in 2.0 mi SW 3.5 mph - 0.07 in Rain Rain
11:23 PM 55.4 °F 53.6 °F 94% 29.99 in 3.0 mi Variable 3.5 mph - 0.08 in Rain Light Rain
11:36 PM 55.4 °F 53.6 °F 94% 30.00 in 2.5 mi SSW 5.8 mph - 0.12 in Rain Rain
11:43 PM 55.4 °F 53.6 °F 94% 30.00 in 4.0 mi SSW 5.8 mph - 0.12 in Rain Light Rain
11:51 PM 55.4 °F 53.6 °F 94% 30.00 in 3.0 mi SSW 5.8 mph - 0.12 in Rain Light Rain
11:53 PM 55.9 °F 53.1 °F 90% 30.01 in 3.0 mi SW 5.8 mph - 0.12 in Rain Light Rain